G8SIB-9 Weather Reports


time (UTC)temp
C
wind
direction
speed
KPH
gust
KPH
rain 1hr
cm
rain 24hr
cm
rain mn
cm
humidity
%
barometer
mb
20260506001649 8 0 9.7 19.3 0.00 0.00 0.00 80 1010.0
20260506000648 8 0 9.7 19.3 0.00 0.00 0.00 80 1010.1
20260505235647 9 6 9.7 19.3 0.00 0.00 0.00 79 1010.1
20260505234646 9 6 9.7 19.3 0.00 0.00 0.00 80 1010.2
20260505233645 9 6 9.7 19.3 0.00 0.00 0.00 80 1010.2
20260505232645 9 6 9.7 20.9 0.00 0.00 0.00 80 1010.2
20260505231644 8 6 9.7 20.9 0.00 0.00 0.00 80 1010.2
20260505230642 9 6 11.3 20.9 0.00 0.00 0.00 80 1010.2
20260505225642 9 12 11.3 20.9 0.00 0.00 0.00 80 1010.3
20260505224641 9 12 11.3 20.9 0.00 0.00 0.00 78 1010.3
20260505223640 9 12 11.3 20.9 0.00 0.00 0.00 78 1010.4
20260505222639 9 12 11.3 22.5 0.00 0.00 0.00 77 1010.4
20260505221638 10 12 11.3 22.5 0.00 0.00 0.00 77 1010.4
20260505220637 10 12 11.3 22.5 0.00 0.00 0.00 76 1010.4
20260505215636 10 20 11.3 22.5 0.00 0.00 0.00 76 1010.3
20260505214635 10 20 11.3 22.5 0.00 0.00 0.00 76 1010.3
20260505213635 10 12 9.7 20.9 0.00 0.00 0.00 75 1010.4
20260505212634 10 12 11.3 22.5 0.00 0.00 0.00 74 1010.3
20260505211634 10 16 11.3 22.5 0.00 0.00 0.00 74 1010.3
20260505210633 10 16 11.3 20.9 0.00 0.00 0.00 73 1010.4
20260505205633 10 18 11.3 20.9 0.00 0.00 0.00 73 1010.3
20260505204632 10 18 11.3 20.9 0.00 0.00 0.00 73 1010.3
20260505203631 10 18 9.7 20.9 0.00 0.00 0.00 72 1010.3
20260505202631 11 18 9.7 19.3 0.00 0.00 0.00 71 1010.2
20260505201630 11 18 9.7 19.3 0.00 0.00 0.00 71 1010.0
20260505200629 11 18 9.7 17.7 0.00 0.00 0.00 71 1010.0
20260505195628 11 48 9.7 17.7 0.00 0.00 0.00 73 1009.9
20260505194628 11 48 9.7 17.7 0.00 0.00 0.00 74 1009.8
20260505193627 11 48 9.7 17.7 0.00 0.00 0.00 75 1009.7
20260505192627 12 48 9.7 17.7 0.00 0.00 0.00 77 1009.5
20260505191626 12 48 9.7 17.7 0.00 0.00 0.00 78 1009.5
20260505190625 12 48 9.7 17.7 0.00 0.00 0.00 79 1009.4
20260505185625 11 30 8.0 16.1 0.00 0.00 0.00 79 1009.3
20260505184624 12 30 6.4 12.9 0.00 0.00 0.00 77 1009.3
20260505183624 12 42 8.0 14.5 0.03 0.00 0.00 74 1009.2
20260505182623 12 42 8.0 16.1 0.03 0.00 0.00 73 1009.2
20260505181621 12 56 8.0 16.1 0.00 0.00 0.00 75 1009.3
20260505180621 12 56 9.7 17.7 0.00 0.00 0.00 74 1009.2
20260505175620 13 18 8.0 16.1 0.00 0.00 0.00 68 1009.1
20260505174619 13 18 8.0 16.1 0.00 0.00 0.00 57 1008.9
20260505173619 14 18 8.0 14.5 0.00 0.00 0.00 56 1008.9
20260505172618 14 18 6.4 14.5 0.00 0.00 0.00 54 1008.8
20260505171617 14 18 6.4 14.5 0.00 0.00 0.00 54 1008.8
20260505170616 15 18 6.4 12.9 0.00 0.00 0.00 53 1008.9
20260505165614 15 80 6.4 11.3 0.00 0.00 0.00 52 1008.9
20260505164614 15 80 6.4 11.3 0.00 0.00 0.00 52 1008.8
20260505163613 15 80 4.8 9.7 0.00 0.00 0.00 52 1008.8
20260505162612 15 80 3.2 8.0 0.00 0.00 0.00 53 1008.8
20260505161611 15 80 3.2 8.0 0.00 0.00 0.00 52 1008.8
20260505160610 15 80 3.2 8.0 0.00 0.00 0.00 53 1008.8
20260505152606 16 80 3.2 9.7 0.00 0.00 0.00 51 1008.8
20260505151606 16 80 3.2 9.7 0.00 0.00 0.00 49 1008.8
20260505150605 16 56 9.7 17.7 0.00 0.00 0.00 49 1008.9
20260505140557 17 134 8.0 16.1 0.00 0.00 0.00 44 1008.9
20260505124551 18 40 8.0 19.3 0.00 0.00 0.00 38 1008.9
20260505123551 19 46 9.7 19.3 0.00 0.00 0.00 37 1008.9
20260505122550 18 46 9.7 20.9 0.00 0.00 0.00 38 1008.9
20260505121550 18 46 9.7 20.9 0.00 0.00 0.00 36 1009.0
20260505120549 19 46 9.7 20.9 0.00 0.00 0.00 34 1009.0
20260505115549 19 38 9.7 20.9 0.00 0.00 0.00 36 1009.0
20260505114548 20 38 9.7 20.9 0.00 0.00 0.00 34 1009.1
20260505113548 19 38 9.7 20.9 0.00 0.00 0.00 36 1009.2
20260505112546 19 54 9.7 20.9 0.00 0.00 0.00 35 1009.3
20260505111545 19 54 9.7 20.9 0.00 0.00 0.00 36 1009.4
20260505110544 18 54 9.7 20.9 0.00 0.00 0.00 37 1009.4
20260505101539 16 46 8.0 19.3 0.00 0.00 0.00 45 1009.9
20260505100538 16 42 9.7 20.9 0.00 0.00 0.00 46 1009.9
20260505095537 17 34 9.7 20.9 0.00 0.00 0.00 44 1009.9
20260505094537 17 34 9.7 20.9 0.00 0.00 0.00 45 1010.0
20260505093536 16 34 9.7 20.9 0.00 0.00 0.00 48 1010.1
20260505092535 16 34 9.7 19.3 0.00 0.00 0.00 49 1010.1
20260505091535 16 34 9.7 19.3 0.00 0.00 0.00 48 1010.0
20260505090534 15 34 9.7 19.3 0.00 0.00 0.00 52 1010.1
20260505085533 15 50 8.0 17.7 0.00 0.00 0.00 54 1010.1
20260505084532 14 42 9.7 19.3 0.00 0.00 0.00 58 1010.1
20260505083532 14 42 9.7 19.3 0.00 0.00 0.00 59 1010.2
20260505082531 15 42 9.7 19.3 0.00 0.00 0.00 54 1010.2
20260505081530 15 42 9.7 19.3 0.00 0.00 0.00 54 1010.2
20260505080528 14 42 9.7 19.3 0.00 0.00 0.00 58 1010.3
20260505075528 13 34 9.7 19.3 0.00 0.00 0.00 59 1010.3
20260505074527 12 34 9.7 19.3 0.00 0.00 0.00 61 1010.2
20260505073526 12 34 9.7 19.3 0.00 0.00 0.00 67 1010.2
20260505072526 11 34 9.7 19.3 0.00 0.00 0.00 69 1010.4
20260505071525 12 34 9.7 19.3 0.00 0.00 0.00 67 1010.4
20260505070523 11 34 9.7 19.3 0.00 0.00 0.00 73 1010.5
20260505065522 11 44 9.7 17.7 0.00 0.00 0.00 71 1010.7
20260505064522 10 44 9.7 17.7 0.00 0.00 0.00 72 1010.7
20260505063521 10 44 9.7 17.7 0.00 0.00 0.00 73 1010.7
20260505062520 10 44 8.0 17.7 0.00 0.00 0.00 72 1010.8
20260505061520 10 46 8.0 17.7 0.00 0.00 0.00 75 1010.8
20260505060519 9 46 8.0 16.1 0.00 0.00 0.00 80 1010.9
20260505055519 8 16 8.0 16.1 0.00 0.00 0.00 85 1010.9
20260505054518 7 16 8.0 16.1 0.00 0.00 0.00 85 1010.9
20260505053517 7 16 8.0 14.5 0.00 0.00 0.00 88 1010.9
20260505052516 7 16 6.4 12.9 0.00 0.00 0.00 89 1010.9
20260505051515 7 16 6.4 12.9 0.00 0.00 0.00 89 1010.9
20260505050515 7 16 6.4 12.9 0.00 0.00 0.00 89 1010.8
20260505041511 7 6 4.8 9.7 0.00 0.00 0.00 90 1010.7
20260505040510 7 6 4.8 9.7 0.00 0.00 0.00 89 1010.7
20260505035510 7 42 3.2 8.0 0.00 0.00 0.00 87 1010.9
20260505034510 8 42 3.2 8.0 0.00 0.00 0.00 85 1010.8
20260505033509 8 42 3.2 6.4 0.00 0.00 0.00 86 1010.9
20260505032508 8 40 1.6 4.8 0.00 0.00 0.00 86 1010.9
20260505031507 8 40 1.6 4.8 0.00 0.00 0.00 86 1010.9
20260505030507 8 40 1.6 4.8 0.00 0.00 0.00 86 1010.9
20260505025506 8 36 1.6 6.4 0.00 0.00 0.00 86 1010.9
20260505024505 8 36 1.6 6.4 0.00 0.00 0.00 85 1011.0
20260505023504 8 36 3.2 8.0 0.00 0.00 0.00 85 1011.0
20260505022504 8 64 3.2 8.0 0.00 0.00 0.00 85 1011.1
20260505021503 9 64 3.2 8.0 0.00 0.00 0.00 84 1011.1
20260505020503 9 64 4.8 8.0 0.00 0.00 0.00 84 1011.2
20260505015502 10 74 4.8 9.7 0.00 0.00 0.00 82 1011.2
20260505014501 10 74 4.8 9.7 0.00 0.00 0.00 82 1011.2
20260505013500 10 74 4.8 9.7 0.00 0.00 0.00 81 1011.1
20260505012500 10 74 4.8 9.7 0.00 0.00 0.00 81 1011.3
20260505011459 10 74 4.8 11.3 0.00 0.00 0.00 80 1011.3
20260505010458 10 74 4.8 11.3 0.00 0.00 0.00 80 1011.4
20260505005458 10 74 4.8 11.3 0.00 0.00 0.00 80 1011.4
20260505004457 10 74 4.8 11.3 0.00 0.00 0.00 81 1011.6
20260505003457 10 74 4.8 9.7 0.00 0.00 0.00 81 1011.8
20260505002456 10 70 4.8 9.7 0.00 0.00 0.00 81 1011.9